Terminal Aerodrome Forecast
Issued by NWS Denver/Boulder, CO

Home | Current Version | Previous Version | Text Only | Print | Product List | Glossary On
Versions: 1 2 3 4 5 6 7 8 9 10 11 12 13 14 15 16 17 18 19 20 21 22 23 24 25 26 27 28 29 30 31 32 33 34 35 36 37 38 39 40 41 42 43 44 45 46 47 48 49 50
000
FTUS45 KBOU 280149 AAB
TAFDEN
TAF AMD
KDEN 280149Z 2802/2906 34014KT P6SM VCTS SCT050CB BKN090 OVC140
      TEMPO 2802/2804 VRB16G28KT 3SM TSRAGS BKN040 OVC060CB
     FM280400 29012KT P6SM VCSH SCT060 BKN090 BKN130
     FM280700 23009KT P6SM SCT090 BKN150
     FM281600 35010KT P6SM FEW050 SCT090 BKN150
     FM282000 36010KT P6SM SCT060 BKN100
      TEMPO 2820/2824 VRB15G30KT -TSRA BKN050CB
     FM290100 23010KT P6SM SCT080 SCT150=

USA.gov is the U.S. government's official web portal to all federal, state and local government web resources and services.